EN

Hourly Weather Eccles

Today, 24 July, Saturday

Time Temperature Precipitation Wind Pressure Humidity
00:00 +16°C° 0 mm 3 mps 758 mmHg 85%
01:00 +16°C° 0 mm 3 mps 757 mmHg 84%
02:00 +16°C° 0 mm 3 mps 756 mmHg 82%
03:00 +16°C° 0 mm 3 mps 756 mmHg 81%
04:00 +15°C° 0 mm 4 mps 756 mmHg 80%
05:00 +15°C° 0 mm 4 mps 756 mmHg 80%
06:00 +15°C° 0 mm 4 mps 756 mmHg 80%
07:00 +17°C° 0 mm 4 mps 756 mmHg 75%
08:00 +17°C° 0 mm 5 mps 756 mmHg 70%
09:00 +19°C° 0 mm 5 mps 755 mmHg 66%
10:00 +20°C° 0 mm 4 mps 755 mmHg 62%
11:00 +21°C° 0 mm 4 mps 755 mmHg 58%
12:00 +22°C° 0 mm 4 mps 755 mmHg 54%
13:00 +22°C° 0 mm 4 mps 755 mmHg 54%
14:00 +22°C° 0 mm 4 mps 755 mmHg 54%
15:00 +22°C° 0 mm 4 mps 755 mmHg 53%
16:00 +22°C° 0 mm 4 mps 754 mmHg 55%
17:00 +21°C° 0 mm 4 mps 754 mmHg 57%
18:00 +21°C° 0 mm 3 mps 754 mmHg 60%
19:00 +19°C° 0 mm 3 mps 754 mmHg 66%
20:00 +18°C° 0 mm 3 mps 755 mmHg 72%
21:00 +16°C° 0 mm 2 mps 755 mmHg 78%
22:00 +16°C° 0 mm 2 mps 755 mmHg 81%
23:00 +15°C° 0 mm 2 mps 755 mmHg 84%

Tomorrow, 25 July, Sunday

Time Temperature Precipitation Wind Pressure Humidity
00:00 +15°C° 0 mm 2 mps 754 mmHg 87%
01:00 +14°C° 0 mm 2 mps 754 mmHg 87%
02:00 +14°C° 0 mm 2 mps 754 mmHg 88%
03:00 +14°C° 0 mm 2 mps 754 mmHg 89%
04:00 +14°C° 0 mm 2 mps 754 mmHg 87%
05:00 +14°C° 0 mm 2 mps 754 mmHg 85%
06:00 +15°C° 0 mm 2 mps 754 mmHg 84%
07:00 +16°C° 0 mm 2 mps 754 mmHg 77%
08:00 +18°C° 0 mm 2 mps 754 mmHg 69%
09:00 +19°C° 0 mm 2 mps 754 mmHg 62%
10:00 +21°C° 0 mm 2 mps 754 mmHg 58%
11:00 +23°C° 0 mm 2 mps 754 mmHg 53%
12:00 +24°C° 0 mm 2 mps 754 mmHg 49%
13:00 +24°C° 0 mm 2 mps 754 mmHg 48%
14:00 +25°C° 0 mm 2 mps 753 mmHg 47%
15:00 +25°C° 0 mm 3 mps 753 mmHg 46%
16:00 +25°C° 0 mm 3 mps 753 mmHg 49%
17:00 +24°C° 0 mm 3 mps 753 mmHg 52%
18:00 +24°C° 0 mm 3 mps 753 mmHg 55%
19:00 +21°C° 0 mm 2 mps 753 mmHg 62%
20:00 +20°C° 0 mm 2 mps 754 mmHg 69%
21:00 +19°C° 0 mm 1 mps 754 mmHg 76%
22:00 +18°C° 0 mm 1 mps 754 mmHg 78%
23:00 +18°C° 0 mm 1 mps 754 mmHg 81%

Day after tomorrow, 26 July, Monday

Time Temperature Precipitation Wind Pressure Humidity
00:00 +16°C° 0 mm 1 mps 754 mmHg 83%
01:00 +16°C° 0 mm 1 mps 754 mmHg 84%
02:00 +15°C° 0 mm 1 mps 754 mmHg 86%
03:00 +15°C° 0 mm 1 mps 754 mmHg 87%
04:00 +16°C° 0 mm 1 mps 754 mmHg 86%
05:00 +16°C° 0 mm 1 mps 754 mmHg 84%
06:00 +18°C° 0 mm 1 mps 754 mmHg 82%
07:00 +18°C° 0 mm 2 mps 754 mmHg 75%
08:00 +20°C° 0 mm 2 mps 754 mmHg 68%
09:00 +21°C° 0 mm 3 mps 754 mmHg 61%
10:00 +22°C° 0 mm 3 mps 754 mmHg 58%
11:00 +24°C° 0 mm 3 mps 753 mmHg 55%
12:00 +25°C° 0 mm 4 mps 753 mmHg 51%
13:00 +25°C° 0 mm 4 mps 753 mmHg 51%
14:00 +25°C° 0 mm 4 mps 753 mmHg 51%
15:00 +25°C° 0 mm 4 mps 753 mmHg 51%
16:00 +23°C° 0 mm 4 mps 753 mmHg 53%
17:00 +22°C° 0 mm 4 mps 753 mmHg 56%
18:00 +21°C° 0 mm 4 mps 753 mmHg 58%
19:00 +20°C° 0 mm 3 mps 753 mmHg 64%
20:00 +18°C° 0 mm 2 mps 753 mmHg 71%
21:00 +18°C° 0 mm 1 mps 753 mmHg 77%
22:00 +18°C° 0 mm 1 mps 753 mmHg 80%
23:00 +16°C° 0 mm 1 mps 753 mmHg 82%

27 July, Tuesday

Time Temperature Precipitation Wind Pressure Humidity
00:00 +16°C° 0 mm 1 mps 753 mmHg 85%
01:00 +16°C° 0 mm 1 mps 753 mmHg 86%
02:00 +15°C° 0 mm 1 mps 753 mmHg 87%
03:00 +15°C° 0 mm 1 mps 753 mmHg 89%
04:00 +15°C° 0 mm 1 mps 753 mmHg 87%
05:00 +16°C° 0 mm 1 mps 753 mmHg 86%
06:00 +16°C° 0 mm 1 mps 753 mmHg 85%
07:00 +19°C° 0 mm 1 mps 753 mmHg 78%
08:00 +19°C° 0 mm 2 mps 753 mmHg 71%
09:00 +21°C° 0 mm 2 mps 753 mmHg 65%
10:00 +21°C° 0.1 mm 2 mps 753 mmHg 62%
11:00 +22°C° 0.1 mm 3 mps 753 mmHg 60%
12:00 +24°C° 0.1 mm 3 mps 753 mmHg 58%
13:00 +24°C° 0.4 mm 3 mps 753 mmHg 59%
14:00 +24°C° 0.4 mm 3 mps 753 mmHg 61%
15:00 +22°C° 0.4 mm 3 mps 753 mmHg 62%
16:00 +23°C° 0.2 mm 2 mps 753 mmHg 64%
17:00 +21°C° 0.2 mm 2 mps 752 mmHg 67%
18:00 +21°C° 0.2 mm 2 mps 752 mmHg 70%
19:00 +19°C° 0.4 mm 2 mps 752 mmHg 76%
20:00 +18°C° 0.4 mm 2 mps 752 mmHg 82%
21:00 +18°C° 0.4 mm 1 mps 752 mmHg 89%
22:00 +18°C° 1.8 mm 1 mps 752 mmHg 91%
23:00 +16°C° 1.8 mm 1 mps 752 mmHg 94%

28 July, Wednesday

Time Temperature Precipitation Wind Pressure Humidity
00:00 +16°C° 1.8 mm 1 mps 751 mmHg 96%
01:00 +16°C° 1.8 mm 1 mps 751 mmHg 96%
02:00 +15°C° 1.8 mm 1 mps 750 mmHg 96%
03:00 +15°C° 1.8 mm 1 mps 750 mmHg 96%
04:00 +15°C° 0.1 mm 1 mps 750 mmHg 95%
05:00 +15°C° 0.1 mm 2 mps 750 mmHg 94%
06:00 +15°C° 0.1 mm 2 mps 749 mmHg 94%
07:00 +16°C° 0.3 mm 2 mps 749 mmHg 91%
08:00 +16°C° 0.3 mm 3 mps 749 mmHg 87%
09:00 +17°C° 0.3 mm 4 mps 749 mmHg 84%
10:00 +17°C° 0.8 mm 4 mps 749 mmHg 82%
11:00 +18°C° 0.8 mm 4 mps 749 mmHg 80%
12:00 +17°C° 0.8 mm 5 mps 749 mmHg 77%
13:00 +17°C° 1.1 mm 5 mps 749 mmHg 76%
14:00 +17°C° 1.1 mm 5 mps 748 mmHg 75%
15:00 +19°C° 1.1 mm 5 mps 748 mmHg 74%
16:00 +17°C° 0.6 mm 5 mps 748 mmHg 75%
17:00 +16°C° 0.6 mm 5 mps 748 mmHg 75%
18:00 +15°C° 0.6 mm 5 mps 748 mmHg 76%
19:00 +14°C° 0.2 mm 4 mps 748 mmHg 79%
20:00 +13°C° 0.2 mm 4 mps 749 mmHg 82%
21:00 +12°C° 0.2 mm 4 mps 749 mmHg 86%
22:00 +12°C° 0 mm 4 mps 749 mmHg 87%
23:00 +12°C° 0 mm 4 mps 748 mmHg 88%

29 July, Thursday

Time Temperature Precipitation Wind Pressure Humidity
00:00 +11°C° 0 mm 4 mps 748 mmHg 89%
01:00 +11°C° 0 mm 4 mps 748 mmHg 90%
02:00 +11°C° 0 mm 3 mps 748 mmHg 92%
03:00 +11°C° 0 mm 3 mps 748 mmHg 93%
04:00 +11°C° 0.2 mm 3 mps 748 mmHg 93%
05:00 +11°C° 0.2 mm 3 mps 747 mmHg 93%
06:00 +12°C° 0.2 mm 3 mps 747 mmHg 93%
07:00 +13°C° 0.1 mm 3 mps 747 mmHg 87%
08:00 +14°C° 0.1 mm 3 mps 747 mmHg 81%
09:00 +16°C° 0.1 mm 3 mps 747 mmHg 75%
10:00 +17°C° 0.1 mm 3 mps 747 mmHg 66%
11:00 +18°C° 0.1 mm 3 mps 747 mmHg 57%
12:00 +20°C° 0.1 mm 3 mps 747 mmHg 48%
13:00 +20°C° 0 mm 4 mps 747 mmHg 50%
14:00 +20°C° 0 mm 4 mps 747 mmHg 51%
15:00 +20°C° 0 mm 5 mps 748 mmHg 52%
16:00 +19°C° 0 mm 5 mps 748 mmHg 57%
17:00 +17°C° 0 mm 5 mps 748 mmHg 62%
18:00 +16°C° 0 mm 5 mps 749 mmHg 68%
19:00 +15°C° 0.1 mm 6 mps 749 mmHg 74%
20:00 +15°C° 0.1 mm 6 mps 749 mmHg 81%
21:00 +14°C° 0.1 mm 7 mps 750 mmHg 87%
22:00 +14°C° 0.1 mm 6 mps 750 mmHg 86%
23:00 +14°C° 0.1 mm 6 mps 750 mmHg 86%
Show more